K8JWL-13 Weather Reports


Display with metric or nautical units.
time (UTC)temp
F
wind
direction
speed
MPH
gust
MPH
rain 1hr
in
rain 24hr
in
rain mn
in
humidity
%
barometer
mb
20260506051243 49 34 2.0 0.0 158.56 0.00 0.06 94 1008.3
20260506050742 49 28 4.0 0.0 158.56 0.00 0.06 94 1008.4
20260506050243 49 28 5.0 0.0 158.56 0.00 0.06 94 1008.5
20260506050135 50 7 3.0 0.0 158.54 0.00 0.04 94 1008.7
20260506044742 50 342 5.0 0.0 158.53 0.00 0.03 94 1008.8
20260506044553 50 290 5.0 0.0 158.50 0.00 0.00 94 1008.8
20260506044244 50 297 6.0 0.0 158.52 0.00 0.02 94 1008.8
20260506043742 50 290 5.0 0.0 158.50 0.00 0.00 94 1008.8
20260506042626 50 1 3.0 0.0 158.50 0.00 1.00 94 1008.6
20260506042243 50 1 3.0 0.0 158.50 0.00 1.00 94 1008.6
20260506042223 50 13 5.0 0.0 158.50 0.00 1.00 94 1008.4
20260506041742 50 13 5.0 0.0 158.50 0.00 1.00 94 1008.4
20260506040743 50 82 0.0 0.0 158.50 0.00 1.00 94 1008.4
20260506040540 50 4 4.0 0.0 158.50 0.00 1.00 94 1008.4
20260506040506 50 66 1.0 0.0 158.50 0.00 1.00 94 1008.4
20260506040243 50 4 4.0 0.0 158.50 0.00 1.00 94 1008.4
20260506035811 50 37 4.0 0.0 158.50 0.00 1.00 94 1008.4
20260506035743 50 66 1.0 0.0 158.50 0.00 1.00 94 1008.4
20260506035243 50 37 4.0 0.0 158.50 0.00 1.00 94 1008.4
20260506034742 50 7 0.0 0.0 158.50 0.00 1.00 94 1008.6
20260506034547 50 8 0.0 0.0 158.49 0.00 0.99 94 1008.6
20260506034243 50 8 0.0 0.0 158.49 0.00 0.99 94 1008.6
20260506034217 50 309 2.0 0.0 158.49 0.00 0.99 94 1008.6
20260506033742 50 309 2.0 0.0 158.49 0.00 0.99 94 1008.6
20260506033242 50 10 6.0 0.0 158.49 0.00 0.99 93 1008.7
20260506032933 50 359 3.0 0.0 158.48 0.00 0.98 93 1008.9
20260506032744 50 23 6.0 0.0 158.48 0.00 0.98 94 1008.9
20260506032243 50 359 3.0 0.0 158.48 0.00 0.98 93 1008.9
20260506031742 50 343 6.0 0.0 158.47 0.00 0.97 93 1009.1
20260506031243 51 7 6.0 0.0 158.46 0.00 0.96 93 1009.1
20260506030742 51 311 5.0 0.0 158.45 0.00 0.95 93 1009.2
20260506030243 51 326 2.0 0.0 158.44 0.00 0.94 93 1009.2
20260506030106 51 342 3.0 0.0 158.42 0.00 0.92 93 1009.3
20260506025743 51 342 3.0 0.0 158.42 0.00 0.92 93 1009.3
20260506025243 51 226 2.0 0.0 158.41 0.00 0.91 93 1009.5
20260506024742 51 23 8.0 0.0 158.41 0.00 0.91 93 1009.5
20260506024332 52 7 3.0 0.0 158.38 0.00 0.88 93 1009.5
20260506024243 52 83 2.0 0.0 158.39 0.00 0.89 93 1009.5
20260506023743 52 7 3.0 0.0 158.38 0.00 0.88 93 1009.5
20260506023710 52 1 1.0 0.0 158.37 0.00 0.87 93 1009.5
20260506023306 52 308 1.0 0.0 158.36 0.00 0.86 93 1009.1
20260506023243 52 1 1.0 0.0 158.37 0.00 0.87 93 1009.5
20260506022743 52 45 4.0 0.0 158.37 0.00 0.87 93 1009.2
20260506022244 52 308 1.0 0.0 158.36 0.00 0.86 93 1009.1
20260506021742 52 342 3.0 0.0 158.36 0.00 0.86 93 1009.1
20260506021430 53 35 4.0 0.0 158.35 0.00 0.85 92 1009.1
20260506021243 53 35 4.0 0.0 158.35 0.00 0.85 92 1009.1
20260506020743 53 11 1.0 0.0 158.34 0.00 0.84 92 1009.1
20260506020242 53 3 0.0 0.0 158.32 0.00 0.82 92 1009.0
20260506015743 53 343 3.0 0.0 158.30 0.00 0.80 92 1009.0
20260506015242 53 69 7.0 0.0 158.28 0.00 0.78 91 1009.1
20260506014243 54 350 5.0 0.0 158.25 0.00 0.75 91 1009.1
20260506013742 54 8 3.0 0.0 158.22 0.00 0.72 91 1009.1
20260506013242 55 20 4.0 0.0 158.21 0.00 0.71 91 1008.9
20260506012743 56 31 3.0 0.0 158.19 0.00 0.69 91 1008.6
20260506012243 56 274 3.0 0.0 158.18 0.00 0.68 91 1008.6
20260506011743 57 318 1.0 0.0 158.14 0.00 0.64 91 1008.5
20260506011243 58 252 7.0 0.0 158.10 0.00 0.60 91 1008.0
20260506010742 59 300 7.0 0.0 158.06 0.00 0.56 91 1008.5
20260506010244 60 333 5.0 0.0 158.04 0.00 0.54 91 1008.3
20260506005743 60 354 1.0 0.0 158.02 0.00 0.52 92 1008.2
20260506005243 60 291 0.0 0.0 158.00 0.00 0.50 92 1008.0
20260506004743 60 266 1.0 0.0 157.99 0.00 0.49 92 1007.9
20260506004243 60 219 0.0 0.0 157.98 0.00 0.48 92 1007.9
20260506003742 60 323 0.0 0.0 157.97 0.00 0.47 92 1007.9
20260506003242 60 248 0.0 0.0 157.96 0.00 0.46 92 1007.8
20260506002743 60 329 0.0 0.0 157.95 0.00 0.45 92 1008.0
20260506002242 60 226 0.0 0.0 157.93 0.00 0.43 92 1007.9
20260506001742 60 17 0.0 0.0 157.93 0.00 0.43 91 1007.8
20260506001242 60 195 1.0 0.0 157.92 0.00 0.42 91 1007.8
20260506000742 60 255 1.0 0.0 157.91 0.00 0.41 91 1007.8
20260506000242 60 238 5.0 0.0 157.90 0.00 0.40 91 1007.8
20260505235742 60 276 5.0 0.0 157.90 0.00 0.40 91 1007.8
20260505235242 60 284 3.0 0.0 157.89 0.00 0.39 91 1007.8
20260505234742 60 271 1.0 0.0 157.88 0.00 0.38 91 1007.8
20260505233742 60 267 2.0 0.0 157.87 0.00 0.37 91 1007.8
20260505233242 60 259 4.0 0.0 157.86 0.00 0.36 91 1007.8
20260505232743 60 221 3.0 0.0 157.84 0.00 0.34 91 1007.8
20260505232242 60 207 2.0 0.0 157.83 0.00 0.33 91 1007.9
20260505231742 60 166 4.0 0.0 157.83 0.00 0.33 91 1008.0
20260505231245 60 350 3.0 0.0 157.82 0.00 0.32 90 1008.0
20260505230742 60 273 5.0 0.0 157.80 0.00 0.30 90 1008.1
20260505230242 61 336 3.0 0.0 157.79 0.00 0.29 90 1008.1
20260505225743 61 152 1.0 0.0 157.79 0.00 0.29 90 1008.2
20260505225242 61 172 0.0 0.0 157.78 0.00 0.28 90 1008.3
20260505224742 61 179 1.0 0.0 157.77 0.00 0.27 90 1008.3
20260505224243 61 260 4.0 0.0 157.76 0.00 0.26 90 1008.4
20260505223742 61 281 4.0 0.0 157.75 0.00 0.25 90 1008.5
20260505223242 61 264 1.0 0.0 157.75 0.00 0.25 90 1008.5
20260505222242 61 266 4.0 0.0 157.73 0.00 0.23 89 1008.6
20260505221742 61 259 4.0 0.0 157.73 0.00 0.23 89 1008.7
20260505221243 61 312 1.0 0.0 157.72 0.00 0.22 89 1008.6
20260505220743 61 266 5.0 0.0 157.71 0.00 0.21 89 1008.5
20260505215745 61 290 5.0 0.0 157.71 0.00 0.21 89 1008.4
20260505215242 61 267 4.0 0.0 157.70 0.00 0.20 88 1008.4
20260505214943 61 248 2.0 0.0 157.70 0.00 0.20 88 1008.4
20260505214742 61 248 2.0 0.0 157.70 0.00 0.20 88 1008.4
20260505214502 62 291 4.0 0.0 157.69 0.00 0.19 88 1008.3
20260505214301 62 287 2.0 0.0 157.69 0.00 0.19 88 1008.3
20260505214243 62 291 4.0 0.0 157.69 0.00 0.19 88 1008.3
20260505213742 62 287 2.0 0.0 157.69 0.00 0.19 88 1008.3
20260505213244 62 240 5.0 0.0 157.68 0.00 0.18 87 1008.3
20260505212744 62 319 2.0 0.0 157.68 0.00 0.18 87 1008.2
20260505212242 62 321 4.0 0.0 157.67 0.00 0.17 87 1008.2
20260505211843 63 287 3.0 0.0 157.65 0.00 0.15 85 1008.2
20260505211742 62 300 4.0 0.0 157.66 0.00 0.16 86 1008.3
20260505211242 63 287 3.0 0.0 157.65 0.00 0.15 85 1008.2
20260505210742 63 307 4.0 0.0 157.64 0.00 0.14 84 1008.3
20260505210242 64 249 9.0 0.0 157.61 0.00 0.11 80 1008.3
20260505205743 67 291 4.0 0.0 157.56 0.00 0.06 73 1008.3
20260505205242 68 297 14.0 0.0 157.53 0.00 0.03 64 1007.8
20260505205114 69 271 5.0 0.0 157.51 0.00 0.01 61 1007.4
20260505205058 69 200 4.0 0.0 157.51 0.00 0.01 60 1007.3
20260505204742 69 271 5.0 0.0 157.51 0.00 0.01 61 1007.4
20260505204242 69 200 4.0 0.0 157.51 0.00 0.01 60 1007.3
20260505203743 68 232 4.0 0.0 157.51 0.00 0.01 59 1007.4
20260505202743 69 267 13.0 0.0 157.51 0.00 0.01 59 1007.6
20260505202242 69 278 8.0 0.0 157.51 0.00 0.01 59 1007.7
20260505201742 69 108 3.0 0.0 157.51 0.00 0.01 58 1007.7
20260505201647 69 256 4.0 0.0 157.51 0.00 0.01 58 1007.7
20260505201242 69 256 4.0 0.0 157.51 0.00 0.01 58 1007.7
20260505200742 69 325 3.0 0.0 157.51 0.00 0.01 58 1007.8
20260505200242 69 242 10.0 0.0 157.51 0.00 0.01 58 1007.9
20260505195243 69 264 6.0 0.0 157.51 0.00 0.01 59 1008.0
20260505194742 69 293 2.0 0.0 157.51 0.00 0.01 58 1008.1
20260505193743 69 266 11.0 0.0 157.51 0.00 0.01 58 1008.3
20260505192742 68 257 1.0 0.0 157.51 0.00 0.01 59 1008.3
20260505192242 69 259 7.0 0.0 157.51 0.00 0.01 59 1008.4
20260505191742 68 278 9.0 0.0 157.51 0.00 0.01 59 1008.5
20260505191245 68 249 10.0 0.0 157.51 0.00 0.01 60 1008.5
20260505190743 68 267 6.0 0.0 157.51 0.00 0.01 59 1008.6
20260505190243 68 322 5.0 0.0 157.51 0.00 0.01 60 1008.5
20260505185744 68 277 12.0 0.0 157.51 0.00 0.01 61 1008.6
20260505183742 68 253 3.0 0.0 157.51 0.00 0.01 61 1008.7
20260505183242 69 253 5.0 0.0 157.51 0.00 0.01 61 1008.8
20260505182744 69 210 2.0 0.0 157.51 0.00 0.01 61 1008.7
20260505182242 69 249 10.0 0.0 157.51 0.00 0.01 60 1008.8
20260505181742 69 314 3.0 0.0 157.51 0.00 0.01 59 1008.8
20260505180743 69 246 11.0 0.0 157.51 0.00 0.01 60 1009.0
20260505180242 69 55 1.0 0.0 157.51 0.00 0.01 59 1008.7
20260505175745 69 316 4.0 0.0 157.51 0.00 0.01 59 1008.7
20260505175242 69 146 3.0 0.0 157.51 0.00 0.01 59 1008.7
20260505174742 70 197 5.0 0.0 157.51 0.00 0.01 59 1008.7
20260505174245 70 243 1.0 0.0 157.51 0.00 0.01 58 1008.6
20260505173742 70 224 3.0 0.0 157.51 0.00 0.01 58 1008.7
20260505173242 70 228 5.0 0.0 157.51 0.00 0.01 58 1008.8
20260505172744 70 124 4.0 0.0 157.51 0.00 0.01 58 1008.9
20260505172242 70 135 2.0 0.0 157.51 0.00 0.01 57 1008.9
20260505171743 71 221 3.0 0.0 157.51 0.00 0.01 57 1008.9
20260505171243 71 224 5.0 0.0 157.51 0.00 0.01 56 1009.0
20260505170242 71 347 6.0 0.0 157.51 0.00 0.01 55 1008.9
20260505165242 71 271 6.0 0.0 157.51 0.00 0.01 54 1008.9
20260505164742 71 256 8.0 0.0 157.51 0.00 0.01 54 1008.9
20260505164242 71 284 7.0 0.0 157.51 0.00 0.01 54 1009.0
20260505163742 71 224 3.0 0.0 157.51 0.00 0.01 54 1008.9
20260505162742 70 294 3.0 0.0 157.51 0.00 0.01 54 1008.9
20260505162242 70 249 4.0 0.0 157.51 0.00 0.01 54 1009.1
20260505161850 70 307 14.0 0.0 157.51 0.00 0.01 56 1009.2
20260505161742 70 214 3.0 0.0 157.51 0.00 0.01 56 1009.1
20260505161242 70 307 14.0 0.0 157.51 0.00 0.01 56 1009.2
20260505160743 69 262 11.0 0.0 157.51 0.00 0.01 58 1009.5
20260505160242 69 280 5.0 0.0 157.51 0.00 0.01 58 1009.5
20260505153242 67 274 4.0 0.0 157.51 0.00 0.01 63 1009.5
20260505152742 67 290 8.0 0.0 157.51 0.00 0.01 64 1009.3
20260505152534 66 143 1.0 0.0 157.51 0.00 0.01 65 1009.0
20260505152242 67 131 2.0 0.0 157.51 0.00 0.01 65 1009.1
20260505151742 66 143 1.0 0.0 157.51 0.00 0.01 65 1009.0
20260505130242 61 222 3.0 0.0 157.51 0.00 0.01 79 1008.2
20260505124741 61 231 4.0 0.0 157.51 0.00 0.01 79 1008.4
20260505124242 61 259 3.0 0.0 157.51 0.00 0.01 79 1008.3
20260505123741 61 243 6.0 0.0 157.51 0.00 0.01 78 1008.3
20260505123330 61 288 5.0 0.0 157.51 0.00 0.01 78 1008.3
20260505123241 61 250 5.0 0.0 157.51 0.00 0.01 78 1008.2
20260505122826 60 297 0.0 0.0 157.51 0.00 0.01 78 1008.2
20260505122742 61 288 5.0 0.0 157.51 0.00 0.01 78 1008.3
20260505122241 60 297 0.0 0.0 157.51 0.00 0.01 78 1008.2
20260505121741 60 305 5.0 0.0 157.51 0.00 0.01 78 1008.1
20260505120741 60 208 0.0 0.0 157.51 0.00 0.01 78 1007.6
20260505115742 60 294 9.0 0.0 157.51 0.00 0.01 78 1007.6
20260505115241 60 293 7.0 0.0 157.51 0.00 0.01 78 1007.2
20260505114741 60 1 3.0 0.0 157.51 0.00 0.01 78 1007.1
20260505114242 60 359 7.0 0.0 157.51 0.00 0.01 78 1006.0
20260505113741 60 235 8.0 0.0 157.51 0.00 0.01 78 1005.9
20260505113241 60 215 7.0 0.0 157.51 0.00 0.01 79 1005.6
20260505112742 60 259 4.0 0.0 157.51 0.00 0.01 80 1005.3
20260505112242 60 139 8.0 0.0 157.51 0.00 0.01 80 1005.3
20260505111741 59 180 6.0 0.0 157.51 0.00 0.01 80 1005.3
20260505111241 59 193 7.0 0.0 157.51 0.00 0.01 81 1005.3
20260505110741 59 208 5.0 0.0 157.51 0.00 0.01 81 1005.4
20260505110242 59 214 5.0 0.0 157.51 0.00 0.01 81 1005.6
20260505102148 60 302 6.0 0.0 157.51 0.00 0.01 77 1007.4
20260505101741 60 302 6.0 0.0 157.51 0.00 0.01 77 1007.4
20260505101242 61 249 4.0 0.0 157.51 0.00 0.01 76 1007.6
20260505100241 62 260 4.0 0.0 157.51 0.00 0.01 74 1007.7
20260505095741 62 277 4.0 0.0 157.51 0.00 0.01 72 1007.7
20260505095241 62 243 6.0 0.0 157.50 0.00 0.00 70 1007.8
20260505094741 62 288 6.0 0.0 157.50 0.00 0.00 69 1007.6
20260505093741 63 246 2.0 0.0 157.50 0.00 0.00 69 1007.6
20260505093352 63 260 3.0 0.0 157.50 0.00 0.00 69 1007.5
20260505093241 63 260 3.0 0.0 157.50 0.00 0.00 69 1007.5
20260505092241 63 343 0.0 0.0 157.50 0.00 0.00 68 1007.3
20260505091741 63 245 4.0 0.0 157.50 0.00 0.00 68 1007.4
20260505091242 63 269 1.0 0.0 157.50 0.00 0.00 67 1007.3
20260505090741 64 270 1.0 0.0 157.50 0.00 0.00 67 1007.2
20260505090241 64 256 3.0 0.0 157.50 0.00 0.00 67 1007.3
20260505085742 64 249 3.0 0.0 157.50 0.00 0.00 66 1007.3
20260505085241 64 264 4.0 0.0 157.50 0.00 0.00 66 1007.4
20260505082741 64 342 4.0 0.0 157.50 0.00 0.00 64 1007.0
20260505082241 64 240 6.0 0.0 157.50 0.00 0.00 64 1006.8
20260505081741 64 6 1.0 0.0 157.50 0.00 0.00 64 1006.7
20260505081242 64 238 0.0 0.0 157.50 0.00 0.00 64 1006.6
20260505080741 64 278 1.0 0.0 157.50 0.00 0.00 64 1006.5
20260505080241 64 266 6.0 0.0 157.50 0.00 0.00 64 1006.5
20260505075742 64 276 6.0 0.0 157.50 0.00 0.00 64 1006.5
20260505075241 65 142 2.0 0.0 157.50 0.00 0.00 64 1006.5
20260505074742 65 278 7.0 0.0 157.50 0.00 0.00 64 1006.4
20260505074242 65 287 7.0 0.0 157.50 0.00 0.00 63 1006.1
20260505073241 65 222 5.0 0.0 157.50 0.00 0.00 62 1006.0
20260505072741 65 248 3.0 0.0 157.50 0.00 0.00 62 1005.9
20260505071741 65 176 3.0 0.0 157.50 0.00 0.00 62 1005.8
20260505071241 65 221 7.0 0.0 157.50 0.00 0.00 62 1005.6
20260505070741 65 212 1.0 0.0 157.50 0.00 0.00 63 1005.7
20260505070241 65 228 9.0 0.0 157.50 0.00 0.00 63 1005.8
20260505065741 65 250 6.0 0.0 157.50 0.00 0.00 62 1005.8
20260505065241 65 266 6.0 0.0 157.50 0.00 0.00 61 1005.8
20260505064742 66 203 2.0 0.0 157.50 0.00 0.00 61 1005.7
20260505063742 66 158 2.0 0.0 157.50 0.00 0.00 61 1005.6
20260505063241 66 176 2.0 0.0 157.50 0.00 0.00 61 1005.5
20260505061742 66 205 10.0 0.0 157.50 0.00 0.00 60 1005.4
20260505061241 66 273 5.0 0.0 157.50 0.00 0.00 60 1005.3
20260505060742 66 232 6.0 0.0 157.50 0.00 0.00 60 1005.4
20260505060241 66 200 2.0 0.0 157.50 0.00 0.00 60 1005.3
20260505055743 66 160 1.0 0.0 157.50 0.00 0.00 60 1005.4
20260505054741 66 3 1.0 0.0 157.50 0.00 0.00 60 1005.5
20260505054241 66 158 4.0 0.0 157.50 0.00 0.00 60 1005.5